This demonstration page uses our WeatherBlox Daily Observations layout. Learn more.

Left ArrowRight Arrow

41.86663, -103.66717

Hourly Observations for October 23, 2021

Temp ( °F °C ) Dew Point ( °F °C ) Humidity (%) Winds ( mph kmh ) Pressure ( in mb ) Visibility ( mi km ) Precip ( " mm )
12:53 am 00:53 Clear 48 8.9 38 3.3 68 68 E 15 24 29.76 1008 10 16 N/A
1:53 am 01:53 Clear 46 7.8 38 3.3 73 73 ESE 12 19 29.75 1008 10 16 N/A
2:53 am 02:53 Clear 43 6.1 37 2.8 80 80 E 9 15 29.73 1007 10 16 N/A
3:53 am 03:53 Clear 43 6.1 38 3.3 82 82 E 7 11 29.71 1006 10 16 N/A
4:53 am 04:53 Clear 40 4.4 36 2.2 86 86 SSE 6 9 29.74 1007 10 16 N/A
5:53 am 05:53 Clear 37 2.8 34 1.1 89 89 E 6 9 29.75 1008 10 16 N/A
6:53 am 06:53 Partly Cloudy 38 3.3 35 1.7 89 89 ESE 7 11 29.78 1008 7 11 N/A
7:03 am 07:03 Mostly Cloudy 38 3.3 35 1.7 89 89 ESE 7 11 29.85 1011 7 11 N/A
7:37 am 07:37 Cloudy with Mist and Fog 39 3.9 36 2.2 89 89 ESE 9 15 29.84 1010 2 2 N/A
7:42 am 07:42 Cloudy with Fog 39 3.9 37 2.8 93 93 ESE 12 19 29.84 1010 0 0 N/A
7:53 am 07:53 Mostly Cloudy with Fog 39 3.9 37 2.8 93 93 SE 7 11 29.78 1009 0 0 N/A
8:53 am 08:53 Mostly Cloudy with Fog 40 4.4 38 3.3 93 93 ESE 13 20 29.78 1009 0 0 N/A
9:13 am 09:13 Mostly Cloudy with Fog 40 4.4 38 3.3 93 93 ESE 12 19 29.83 1010 1 1 N/A
9:22 am 09:22 Mostly Cloudy with Fog 40 4.4 38 3.3 93 93 ESE 9 15 29.83 1010 0 0 N/A
9:30 am 09:30 Cloudy with Mist and Fog 40 4.4 38 3.3 93 93 ESE 9 15 29.83 1010 1 1 N/A
9:38 am 09:38 Cloudy with Mist and Fog 40 4.4 38 3.3 93 93 E 8 13 29.82 1010 1 2 N/A
9:53 am 09:53 Cloudy with Mist and Fog 41 5 39 3.9 93 93 ESE 10 17 29.77 1008 2 3 N/A
10:04 am 10:04 Cloudy with Mist and Fog 41 5 39 4 93 93 SE 9 15 29.81 1010 5 8 N/A
10:53 am 10:53 Mostly Cloudy 45 7.2 40 4.4 83 83 ESE 9 15 29.74 1007 10 16 N/A
11:01 am 11:01 Mostly Cloudy 45 7.2 40 4.4 83 83 ESE 10 17 29.77 1008 10 16 N/A
11:08 am 11:08 Partly Cloudy 46 7.8 40 4.4 79 79 ESE 9 15 29.76 1008 10 16 N/A
11:53 am 11:53 Sunny 48 8.9 40 4.4 74 74 E 7 11 29.72 1006 10 16 N/A
12:53 pm 12:53 Sunny 52 11.1 41 5 66 66 E 7 11 29.68 1005 10 16 N/A
1:53 pm 13:53 Sunny 55 12.8 42 5.6 62 62 ESE 7 11 29.65 1004 10 16 N/A
2:53 pm 14:53 Mostly Sunny 57 13.9 42 5.6 58 58 E 7 11 29.63 1003 10 16 N/A
3:53 pm 15:53 Sunny 57 13.9 42 5.6 58 58 E 7 11 29.64 1004 10 16 N/A
4:53 pm 16:53 Mostly Sunny 56 13.3 42 5.6 60 60 E 6 9 29.66 1004 10 16 N/A
5:53 pm 17:53 Mostly Cloudy 53 11.7 43 6.1 69 69 W 7 11 29.70 1006 10 16 N/A
6:53 pm 18:53 Clear 48 8.9 41 5 77 77 NNE 8 13 29.70 1006 10 16 N/A
7:53 pm 19:53 Partly Cloudy 49 9.4 42 5.6 77 77 WNW 6 9 29.72 1006 10 16 N/A
8:53 pm 20:53 Cloudy 48 8.9 42 5.6 80 80 N N/A 29.74 1007 10 16 N/A
9:53 pm 21:53 Cloudy with Light Rain 49 9.4 43 6.1 80 80 N N/A 29.76 1008 10 16 0.00 0.00
10:53 pm 22:53 Cloudy 49 9.4 43 6.1 80 80 S 5 7 29.74 1007 10 16 0.00 0.00
11:53 pm 23:53 Cloudy 49 9.4 42 5.6 77 77 ESE 3 6 29.72 1006 10 16 N/A

Powered by AerisWeather